EW7735 Weather Reports


time (UTC)temp
C
wind
direction
speed
KPH
gust
KPH
rain 1hr
cm
rain 24hr
cm
rain mn
cm
humidity
%
barometer
mb
20260507070101 8 1 0.0 0.0 0.00 0.00 0.00 80 1019.2
20260507064502 8 1 0.0 0.0 0.00 0.00 0.00 79 1019.4
20260507063114 8 1 0.0 0.0 0.00 0.00 0.00 79 1019.4
20260507061626 9 1 0.0 1.6 0.00 0.00 0.00 79 1019.4
20260507060107 9 1 0.0 1.6 0.00 0.00 0.00 78 1019.2
20260507054623 9 1 0.0 0.0 0.00 0.00 0.00 77 1018.9
20260507053111 10 1 0.0 1.6 0.00 0.00 0.00 76 1019.0
20260507051632 10 1 0.0 0.0 0.00 0.00 0.00 74 1018.9
20260507044506 10 1 0.0 4.8 0.00 0.00 0.00 74 1018.9
20260507043014 10 1 0.0 0.0 0.00 0.00 0.00 73 1018.8
20260507041629 10 1 0.0 0.0 0.00 0.00 0.00 71 1018.8
20260507040112 11 1 0.0 0.0 0.00 0.00 0.00 69 1018.7
20260507034506 11 1 0.0 0.0 0.00 0.00 0.00 68 1018.8
20260507033032 11 1 0.0 0.0 0.00 0.00 0.00 66 1018.4
20260507031627 12 1 0.0 0.0 0.00 0.00 0.00 64 1018.4
20260507030112 12 1 0.0 3.2 0.00 0.00 0.00 62 1018.4
20260507024503 12 1 0.0 6.4 0.00 0.00 0.00 61 1018.1
20260507023112 13 1 0.0 3.2 0.00 0.00 0.00 60 1018.1
20260507021625 13 1 0.0 8.0 0.00 0.00 0.00 58 1017.8
20260507020055 13 1 3.2 8.0 0.00 0.00 0.00 57 1017.8
20260507014606 14 1 3.2 12.9 0.00 0.00 0.00 55 1017.7
20260507013113 15 1 4.8 8.0 0.00 0.00 0.00 53 1017.4
20260507011558 15 1 1.6 8.0 0.00 0.00 0.00 53 1017.2
20260507010056 15 1 3.2 16.1 0.00 0.00 0.00 52 1017.1
20260507004625 16 1 1.6 17.7 0.00 0.00 0.00 51 1016.9
20260507003111 16 1 4.8 17.7 0.00 0.00 0.00 49 1016.7
20260507001621 16 1 6.4 16.1 0.00 0.00 0.00 48 1016.6
20260506234629 17 6 4.8 17.7 0.00 0.00 0.00 48 1016.4
20260506233110 17 37 6.4 20.9 0.00 0.00 0.00 48 1016.4
20260506231629 17 17 4.8 17.7 0.00 0.00 0.00 48 1016.3
20260506230059 17 10 1.6 16.1 0.00 0.00 0.00 48 1016.1
20260506224557 17 348 9.7 20.9 0.00 0.00 0.00 47 1016.0
20260506223127 17 10 4.8 17.7 0.00 0.00 0.00 51 1015.8
20260506221544 16 1 8.0 20.9 0.00 0.00 0.00 50 1015.7
20260506220026 16 1 9.7 24.1 0.00 0.00 0.00 51 1015.7
20260506214551 16 41 4.8 20.9 0.00 0.00 0.00 51 1015.7
20260506213021 16 1 6.4 22.5 0.00 0.00 0.00 50 1015.8
20260506211626 17 1 8.0 19.3 0.00 0.00 0.00 49 1015.7
20260506210133 16 6 12.9 22.5 0.00 0.00 0.00 52 1015.9
20260506204559 17 6 4.8 30.6 0.00 0.00 0.00 51 1016.1
20260506203104 17 55 4.8 19.3 0.00 0.00 0.00 51 1016.5
20260506201600 16 1 1.6 19.3 0.00 0.00 0.00 54 1016.6
20260506200125 16 1 9.7 19.3 0.00 0.00 0.00 54 1016.8
20260506194632 16 1 8.0 17.7 0.00 0.00 0.00 55 1016.6
20260506193057 16 1 9.7 17.7 0.00 0.00 0.00 55 1016.8
20260506191513 16 12 8.0 20.9 0.00 0.00 0.00 56 1016.9
20260506190057 15 1 3.2 17.7 0.00 0.00 0.00 57 1017.3
20260506184624 15 1 4.8 14.5 0.00 0.00 0.00 56 1017.4
20260506183113 15 1 4.8 17.7 0.00 0.00 0.00 57 1017.6
20260506181506 15 1 4.8 22.5 0.00 0.00 0.00 57 1017.9
20260506180022 15 1 4.8 17.7 0.00 0.00 0.00 58 1017.7
20260506174629 15 51 1.6 19.3 0.00 0.00 0.00 60 1017.9
20260506173127 15 1 11.3 22.5 0.00 0.00 0.00 59 1018.3
20260506171555 15 1 3.2 17.7 0.00 0.00 0.00 59 1018.7
20260506170042 15 1 8.0 19.3 0.00 0.00 0.00 58 1019.0
20260506164509 14 87 3.2 14.5 0.00 0.00 0.00 60 1019.1
20260506163108 13 10 6.4 17.7 0.00 0.00 0.00 61 1018.8
20260506161625 13 351 4.8 20.9 0.00 0.00 0.00 62 1018.8
20260506160110 13 32 8.0 17.7 0.00 0.00 0.00 63 1018.7
20260506154544 13 39 9.7 25.7 0.00 0.00 0.00 64 1018.3
20260506153027 12 47 4.8 24.1 0.00 0.00 0.00 66 1018.0
20260506151502 12 1 8.0 25.7 0.00 0.00 0.00 65 1017.5
20260506150112 11 1 4.8 20.9 0.00 0.00 0.00 67 1017.2
20260506144554 11 1 4.8 16.1 0.00 0.00 0.00 69 1017.2
20260506143100 11 1 4.8 29.0 0.00 0.00 0.00 71 1017.4
20260506141558 10 1 3.2 20.9 0.00 0.00 0.00 72 1017.2
20260506140049 10 1 3.2 20.9 0.00 0.00 0.00 74 1017.2
20260506134607 10 1 9.7 25.7 0.00 0.00 0.00 74 1017.5
20260506133025 10 1 8.0 22.5 0.00 0.00 0.00 75 1017.5
20260506131627 10 1 9.7 24.1 0.00 0.00 0.00 75 1017.4
20260506130107 9 1 8.0 24.1 0.00 0.00 0.00 79 1017.2
20260506124626 9 1 6.4 17.7 0.00 0.00 0.00 82 1017.1
20260506123104 9 1 6.4 24.1 0.00 0.00 0.00 83 1016.9
20260506121629 8 1 11.3 24.1 0.00 0.00 0.00 84 1016.7
20260506120114 8 1 6.4 24.1 0.00 0.00 0.00 83 1016.5
20260506114520 8 1 11.3 20.9 0.00 0.00 0.00 83 1016.8
20260506113015 8 1 8.0 30.6 0.00 0.00 0.00 83 1016.6
20260506111609 8 1 9.7 22.5 0.00 0.00 0.00 83 1016.6
20260506110048 8 1 9.7 16.1 0.00 0.00 0.00 83 1016.4
20260506104509 8 1 6.4 16.1 0.00 0.00 0.00 83 1015.9
20260506103021 8 1 3.2 17.7 0.00 0.00 0.00 83 1015.7
20260506101541 8 1 4.8 17.7 0.00 0.00 0.00 82 1015.7
20260506100028 8 1 6.4 12.9 0.00 0.00 0.00 82 1015.5
20260506094509 8 1 6.4 20.9 0.00 0.00 0.00 82 1015.3
20260506093116 9 1 6.4 17.7 0.00 0.00 0.00 81 1015.0
20260506091503 8 1 8.0 19.3 0.00 0.00 0.00 82 1014.1
20260506090057 8 1 6.4 16.1 0.00 0.00 0.00 82 1013.7
20260506084541 8 1 6.4 12.9 0.00 0.00 0.00 81 1013.9
20260506083022 9 1 4.8 9.7 0.00 0.00 0.00 81 1013.4
20260506081517 9 1 6.4 14.5 0.00 0.00 0.00 79 1013.1
20260506080135 9 1 3.2 8.0 0.00 0.00 0.00 78 1013.0
20260506073109 10 1 6.4 24.1 0.00 0.00 0.00 74 1013.2
20260506071501 10 1 4.8 27.4 0.00 0.00 0.00 74 1013.1